BY70-3 (46839 NORAD) Tracking and Keplerian Element Data

This shows tracking and keplerian element data for the satellite.

Feedback or suggestion? Click here.




ElementValue
Catalog46839
NameBY70-3
Epoch Orbit1071
Epoch Day15.13413228
Epoch Year2021
RAAN92.021
Inclination97.2589
Eccentricity0.0008426
Argument of Perigee46.8701
Mean Anonmoly40.4095
Mean Motion15.32645335
Decay Rate2.642E-05
L11 46839U 20079N 21015.13413228 .00002642 00000-0 86173-4 0 9994
L22 46839 97.2589 92.0210 0008426 46.8701 40.4095 15.32645335 10710

Live tracking and technical data element details for BY70-3 (NORAD 46839). BY70-3 can be tracked NOW for your location showing map with azimuth and elevation plus other details from your city location.

Track the satellite on the map from your city or location and see movement details for azimuth, elevation, latitude, longitude, range, height, and movement on the map or in text.







IsCatalogInMostPopularTable: catalog: 46839, numindb: 33
Update: records affected: 1



GetName: 46839 BY70-3

Hit Count: updated at: Fri, 15 Jan 2021 23:55:49 GMT